AC4VM Weather Reports


Display with metric or nautical units.
time (UTC)temp
F
wind
direction
speed
MPH
gust
MPH
rain 1hr
in
rain 24hr
in
rain mn
in
humidity
%
barometer
mb
20260902074505 71 295 0.0 0.0 0.00 0.00 0.00 95 1015.8
20260902073004 71 295 0.0 0.0 0.00 0.00 0.00 94 1015.8
20260902071502 72 295 0.0 0.0 0.00 0.00 0.00 94 1015.8
20260902070002 71 295 0.0 0.0 0.00 0.00 0.00 94 1016.0
20260902064501 72 295 0.0 0.0 0.00 0.00 0.00 94 1015.9
20260902063100 72 295 0.0 0.0 0.00 0.00 0.00 94 1016.1
20260902054611 72 295 0.0 0.0 0.00 0.00 0.00 93 1016.3
20260902053104 73 295 0.0 0.0 0.00 0.00 0.00 93 1016.3
20260902051552 73 295 0.0 0.0 0.00 0.00 0.00 92 1016.1
20260902050056 73 295 0.0 0.0 0.00 0.00 0.00 92 1016.1
20260902044552 73 295 1.0 2.0 0.00 0.00 0.00 92 1015.9
20260902043048 74 295 0.0 2.0 0.00 0.00 0.00 91 1016.0
20260902041547 74 295 0.0 1.0 0.00 0.00 0.00 91 1016.0
20260902040048 74 295 0.0 2.0 0.00 0.00 0.00 90 1016.0
20260902034541 74 295 0.0 0.0 0.00 0.00 0.00 90 1015.8
20260902033041 75 295 0.0 1.0 0.00 0.00 0.00 89 1015.7
20260902031544 76 295 1.0 2.0 0.00 0.00 0.00 87 1015.8
20260902030040 75 295 1.0 2.0 0.00 0.00 0.00 88 1015.9
20260902024541 76 295 0.0 0.0 0.00 0.00 0.00 87 1015.8
20260902023042 77 295 0.0 2.0 0.00 0.00 0.00 85 1015.8
20260902021537 77 295 1.0 2.0 0.00 0.00 0.00 85 1015.6
20260902020039 77 295 0.0 1.0 0.00 0.00 0.00 85 1015.7
20260902014537 78 295 0.0 2.0 0.00 0.00 0.00 84 1015.7
20260902013041 78 295 0.0 0.0 0.00 0.00 0.00 85 1015.6
20260902011535 79 295 0.0 2.0 0.00 0.00 0.00 81 1015.5
20260902010035 80 295 0.0 0.0 0.00 0.00 0.00 81 1015.4
20260902004535 81 295 1.0 2.0 0.00 0.00 0.00 78 1015.1
20260902003038 82 295 0.0 0.0 0.00 0.00 0.00 76 1015.1
20260902001545 83 295 1.0 2.0 0.00 0.00 0.00 72 1015.2
20260902000037 84 55 0.0 1.0 0.00 0.00 0.00 72 1015.2
20260901234533 87 55 0.0 1.0 0.00 0.00 0.00 67 1015.2
20260901233034 88 55 0.0 2.0 0.00 0.00 0.00 62 1015.3
20260901231531 89 77 1.0 4.0 0.00 0.00 0.00 58 1015.2
20260901230030 90 71 2.0 4.0 0.00 0.00 0.00 56 1015.2
20260901224529 90 50 2.0 4.0 0.00 0.00 0.00 56 1015.2
20260901223028 91 275 0.0 3.0 0.00 0.00 0.00 52 1015.2
20260901221528 92 43 1.0 5.0 0.00 0.00 0.00 50 1015.2
20260901220026 92 22 3.0 5.0 0.00 0.00 0.00 50 1015.1
20260901214525 92 281 1.0 4.0 0.00 0.00 0.00 53 1015.2
20260901213027 91 88 3.0 7.0 0.00 0.00 0.00 52 1015.2
20260901211524 90 256 0.0 2.0 0.00 0.00 0.00 59 1015.4
20260901210022 92 301 1.0 3.0 0.00 0.00 0.00 51 1015.4
20260901204522 91 89 2.0 7.0 0.00 0.00 0.00 53 1015.5
20260901203025 93 9 3.0 7.0 0.00 0.00 0.00 51 1015.6
20260901201519 93 89 2.0 8.0 0.00 0.00 0.00 50 1015.7
20260901200018 92 263 1.0 6.0 0.00 0.00 0.00 53 1015.9
20260901194517 91 199 0.0 5.0 0.00 0.00 0.00 54 1015.9
20260901193016 89 68 0.0 4.0 0.00 0.00 0.00 58 1016.2
20260901191527 92 360 4.0 7.0 0.00 0.00 0.00 53 1016.2
20260901190012 93 54 4.0 7.0 0.00 0.00 0.00 52 1016.5
20260901184512 91 11 4.0 7.0 0.00 0.00 0.00 54 1016.7
20260901183008 89 91 1.0 3.0 0.00 0.00 0.00 58 1016.8
20260901181508 90 36 4.0 8.0 0.00 0.00 0.00 57 1017.0
20260901180007 91 77 4.0 11.0 0.00 0.00 0.00 57 1017.1
20260901174506 90 208 1.0 4.0 0.00 0.00 0.00 58 1017.2
20260901173005 88 149 0.0 4.0 0.00 0.00 0.00 63 1017.5
20260901171504 90 283 3.0 5.0 0.00 0.00 0.00 59 1017.7
20260901170004 89 64 3.0 8.0 0.00 0.00 0.00 60 1017.8
20260901164505 88 92 2.0 6.0 0.00 0.00 0.00 60 1018.0
20260901163059 87 56 0.0 6.0 0.00 0.00 0.00 66 1018.4
20260901161609 87 213 0.0 6.0 0.00 0.00 0.00 68 1018.5
20260901160107 86 73 1.0 4.0 0.00 0.00 0.00 67 1018.5
20260901154558 85 108 2.0 7.0 0.00 0.00 0.00 67 1018.7
20260901153054 85 55 1.0 5.0 0.00 0.00 0.00 71 1018.8
20260901151548 84 108 1.0 4.0 0.00 0.00 0.00 72 1018.7
20260901150047 83 244 2.0 4.0 0.00 0.00 0.00 74 1018.7
20260901144549 83 69 0.0 3.0 0.00 0.00 0.00 75 1018.8
20260901143047 82 143 1.0 5.0 0.00 0.00 0.00 75 1018.8
20260901141548 82 208 1.0 3.0 0.00 0.00 0.00 77 1018.7
20260901140039 80 250 1.0 3.0 0.00 0.00 0.00 79 1018.9
20260901134539 79 38 1.0 3.0 0.00 0.00 0.00 80 1018.8
20260901133035 78 127 1.0 3.0 0.00 0.00 0.00 83 1018.8
20260901131530 77 71 0.0 3.0 0.00 0.00 0.00 85 1018.9
20260901130029 76 279 0.0 2.0 0.00 0.00 0.00 88 1018.8
20260901124525 74 279 0.0 2.0 0.00 0.00 0.00 93 1019.0
20260901123021 72 279 0.0 1.0 0.00 0.00 0.00 95 1018.9
20260901121519 71 279 0.0 2.0 0.00 0.00 0.00 95 1018.7
20260901120018 70 279 1.0 2.0 0.00 0.00 0.00 96 1018.4
20260901114515 69 279 0.0 0.0 0.00 0.00 0.00 96 1018.2
20260901113014 68 279 0.0 0.0 0.00 0.00 0.00 96 1017.8
20260901111512 69 279 0.0 0.0 0.00 0.00 0.00 96 1017.7
20260901110011 68 279 0.0 0.0 0.00 0.00 0.00 96 1017.5
20260901104511 69 279 0.0 2.0 0.00 0.00 0.00 96 1017.3
20260901103009 68 279 0.0 0.0 0.00 0.00 0.00 96 1017.1
20260901101509 69 279 0.0 0.0 0.00 0.00 0.00 95 1016.9
20260901100008 69 279 0.0 2.0 0.00 0.00 0.00 96 1016.9
20260901094506 69 279 0.0 1.0 0.00 0.00 0.00 95 1016.9
20260901093005 69 279 0.0 2.0 0.00 0.00 0.00 95 1016.8
20260901091504 69 279 0.0 1.0 0.00 0.00 0.00 95 1016.8
20260901090007 70 279 0.0 1.0 0.00 0.00 0.00 95 1016.7
20260901084503 69 279 0.0 0.0 0.00 0.00 0.00 95 1016.7
20260901083002 70 279 0.0 0.0 0.00 0.00 0.00 95 1016.6
20260901081559 70 279 0.0 1.0 0.00 0.00 0.00 95 1016.7
20260901080106 70 279 0.0 1.0 0.00 0.00 0.00 95 1016.8